カタログに戻る

STARLINK-35469

運用中通信VLEO
NORAD 65863·PAYLOAD·🇺🇸 United States

打ち上げ Oct 3, 2025 から Vandenberg Space Force Base

Loading…

次のパス (今後24時間)

TLE

最新Source: CelesTrak SupGP

元期: Sep 14, 2026, 22:34 UTC

1 65863C 25223K   26257.94076389 -.00063561  00000+0 -18779-2 0  2573
2 65863  53.1563 131.5399 0001282  96.7131 184.1918 15.34421833    11

AllMySatでSTARLINK-35469をリアルタイム追跡

Download on the App Store